| time (UTC) | temp C | wind direction | speed KPH | gust KPH | rain 1hr cm | rain 24hr cm | rain mn cm | humidity % | barometer mb |
| 20260906064542 | 28 | 103 | 3.2 | 14.5 | 0.00 | 0.00 | 0.00 | 78 | 1012.6 |
| 20260906063040 | 28 | 64 | 0.0 | 12.9 | 0.00 | 0.00 | 0.00 | 77 | 1012.6 |
| 20260906061540 | 28 | 102 | 1.6 | 11.3 | 0.00 | 0.00 | 0.00 | 76 | 1012.6 |
| 20260906060037 | 29 | 103 | 0.0 | 6.4 | 0.00 | 0.00 | 0.00 | 75 | 1012.7 |
| 20260906054535 | 29 | 113 | 0.0 | 11.3 | 0.00 | 0.00 | 0.00 | 74 | 1012.6 |
| 20260906053032 | 30 | 53 | 0.0 | 12.9 | 0.00 | 0.00 | 0.00 | 73 | 1012.7 |
| 20260906051530 | 30 | 355 | 0.0 | 9.7 | 0.00 | 0.00 | 0.00 | 72 | 1012.6 |
| 20260906050029 | 30 | 69 | 0.0 | 12.9 | 0.00 | 0.00 | 0.00 | 71 | 1012.5 |
| 20260906044526 | 30 | 108 | 6.4 | 17.7 | 0.00 | 0.00 | 0.00 | 70 | 1012.3 |
| 20260906043026 | 30 | 107 | 0.0 | 0.0 | 0.00 | 0.00 | 0.00 | 69 | 1012.3 |
| 20260906041535 | 30 | 30 | 0.0 | 0.0 | 0.00 | 0.00 | 0.00 | 68 | 1012.3 |
| 20260906040024 | 30 | 36 | 0.0 | 0.0 | 0.00 | 0.00 | 0.00 | 66 | 1012.1 |
| 20260906034529 | 31 | 76 | 0.0 | 0.0 | 0.00 | 0.00 | 0.00 | 64 | 1012.0 |
| 20260906033025 | 31 | 28 | 0.0 | 4.8 | 0.00 | 0.00 | 0.00 | 62 | 1012.0 |
| 20260906031522 | 31 | 20 | 0.0 | 1.6 | 0.00 | 0.00 | 0.00 | 60 | 1011.8 |
| 20260906030022 | 31 | 20 | 0.0 | 0.0 | 0.00 | 0.00 | 0.00 | 59 | 1011.8 |
| 20260906024522 | 31 | 20 | 0.0 | 0.0 | 0.00 | 0.00 | 0.00 | 58 | 1011.6 |
| 20260906023022 | 31 | 26 | 0.0 | 0.0 | 0.00 | 0.00 | 0.00 | 57 | 1011.4 |
| 20260906021521 | 31 | 26 | 0.0 | 0.0 | 0.00 | 0.00 | 0.00 | 57 | 1011.2 |
| 20260906020021 | 32 | 26 | 0.0 | 0.0 | 0.00 | 0.00 | 0.00 | 57 | 1011.1 |
| 20260906014524 | 32 | 26 | 0.0 | 0.0 | 0.00 | 0.00 | 0.00 | 56 | 1010.9 |
| 20260906013020 | 32 | 26 | 0.0 | 0.0 | 0.00 | 0.00 | 0.00 | 56 | 1010.6 |
| 20260906011519 | 33 | 26 | 0.0 | 0.0 | 0.00 | 0.00 | 0.00 | 55 | 1010.5 |
| 20260906010018 | 33 | 26 | 0.0 | 0.0 | 0.00 | 0.00 | 0.00 | 54 | 1010.4 |
| 20260906004517 | 33 | 26 | 0.0 | 0.0 | 0.00 | 0.00 | 0.00 | 52 | 1010.2 |
| 20260906003017 | 34 | 344 | 0.0 | 0.0 | 0.00 | 0.00 | 0.00 | 51 | 1010.2 |
| 20260906001517 | 35 | 5 | 0.0 | 0.0 | 0.00 | 0.00 | 0.00 | 50 | 1010.2 |
| 20260906000016 | 35 | 5 | 0.0 | 1.6 | 0.00 | 0.00 | 0.00 | 48 | 1010.1 |
| 20260905234516 | 35 | 15 | 0.0 | 0.0 | 0.00 | 0.00 | 0.00 | 47 | 1010.2 |
| 20260905233016 | 35 | 5 | 0.0 | 4.8 | 0.00 | 0.00 | 0.00 | 46 | 1010.3 |
| 20260905231514 | 36 | 248 | 0.0 | 9.7 | 0.00 | 0.00 | 0.00 | 46 | 1010.4 |
| 20260905230014 | 36 | 287 | 0.0 | 1.6 | 0.00 | 0.00 | 0.00 | 45 | 1010.4 |
| 20260905224519 | 36 | 348 | 0.0 | 0.0 | 0.00 | 0.00 | 0.00 | 44 | 1010.2 |
| 20260905223012 | 36 | 288 | 0.0 | 1.6 | 0.00 | 0.00 | 0.00 | 43 | 1010.1 |
| 20260905221527 | 36 | 282 | 0.0 | 0.0 | 0.00 | 0.00 | 0.00 | 45 | 1010.3 |
| 20260905220010 | 37 | 285 | 0.0 | 1.6 | 0.00 | 0.00 | 0.00 | 46 | 1010.2 |
| 20260905214511 | 36 | 225 | 0.0 | 6.4 | 0.00 | 0.00 | 0.00 | 45 | 1010.3 |
| 20260905213009 | 36 | 296 | 0.0 | 12.9 | 0.00 | 0.00 | 0.00 | 45 | 1010.2 |
| 20260905211508 | 36 | 252 | 0.0 | 0.0 | 0.00 | 0.00 | 0.00 | 46 | 1010.3 |
| 20260905210008 | 36 | 261 | 0.0 | 1.6 | 0.00 | 0.00 | 0.00 | 45 | 1010.5 |
| 20260905204504 | 37 | 240 | 0.0 | 1.6 | 0.00 | 0.00 | 0.00 | 43 | 1010.6 |
| 20260905203002 | 37 | 276 | 0.0 | 0.0 | 0.00 | 0.00 | 0.00 | 42 | 1010.5 |
| 20260905201502 | 37 | 342 | 0.0 | 1.6 | 0.00 | 0.00 | 0.00 | 40 | 1010.7 |
| 20260905200004 | 37 | 350 | 1.6 | 14.5 | 0.00 | 0.00 | 0.00 | 40 | 1010.7 |
| 20260905194558 | 37 | 355 | 0.0 | 14.5 | 0.00 | 0.00 | 0.00 | 39 | 1010.9 |
| 20260905193055 | 37 | 256 | 0.0 | 3.2 | 0.00 | 0.00 | 0.00 | 42 | 1011.2 |
| 20260905191556 | 37 | 333 | 0.0 | 17.7 | 0.00 | 0.00 | 0.00 | 42 | 1011.5 |
| 20260905190104 | 37 | 51 | 0.0 | 6.4 | 0.00 | 0.00 | 0.00 | 42 | 1011.5 |
| 20260905184605 | 37 | 300 | 0.0 | 12.9 | 0.00 | 0.00 | 0.00 | 43 | 1011.6 |
| 20260905183047 | 37 | 333 | 0.0 | 4.8 | 0.00 | 0.00 | 0.00 | 44 | 1011.8 |
| 20260905181543 | 36 | 347 | 0.0 | 4.8 | 0.00 | 0.00 | 0.00 | 46 | 1011.9 |
| 20260905180038 | 36 | 17 | 0.0 | 11.3 | 0.00 | 0.00 | 0.00 | 47 | 1012.1 |
| 20260905174544 | 36 | 226 | 0.0 | 3.2 | 0.00 | 0.00 | 0.00 | 48 | 1012.2 |
| 20260905173037 | 36 | 289 | 0.0 | 11.3 | 0.00 | 0.00 | 0.00 | 49 | 1012.3 |
| 20260905171527 | 35 | 338 | 0.0 | 8.0 | 0.00 | 0.00 | 0.00 | 49 | 1012.6 |
| 20260905170025 | 35 | 28 | 0.0 | 4.8 | 0.00 | 0.00 | 0.00 | 49 | 1012.7 |
| 20260905164522 | 35 | 316 | 0.0 | 12.9 | 0.00 | 0.00 | 0.00 | 50 | 1012.9 |
| 20260905163024 | 35 | 324 | 0.0 | 1.6 | 0.00 | 0.00 | 0.00 | 52 | 1013.0 |
| 20260905161514 | 34 | 331 | 0.0 | 3.2 | 0.00 | 0.00 | 0.00 | 54 | 1013.1 |
| 20260905160011 | 33 | 278 | 0.0 | 3.2 | 0.00 | 0.00 | 0.00 | 55 | 1013.0 |
| 20260905154507 | 33 | 312 | 0.0 | 12.9 | 0.00 | 0.00 | 0.00 | 58 | 1013.1 |
| 20260905153005 | 32 | 268 | 0.0 | 4.8 | 0.00 | 0.00 | 0.00 | 57 | 1013.2 |
| 20260905151503 | 32 | 351 | 0.0 | 6.4 | 0.00 | 0.00 | 0.00 | 59 | 1013.2 |
| 20260905150058 | 31 | 266 | 0.0 | 12.9 | 0.00 | 0.00 | 0.00 | 61 | 1013.1 |
| 20260905144557 | 31 | 304 | 0.0 | 16.1 | 0.00 | 0.00 | 0.00 | 62 | 1013.1 |
| 20260905143053 | 30 | 254 | 0.0 | 1.6 | 0.00 | 0.00 | 0.00 | 67 | 1013.0 |
| 20260905141553 | 29 | 227 | 0.0 | 1.6 | 0.00 | 0.00 | 0.00 | 69 | 1013.1 |
| 20260905140046 | 28 | 238 | 0.0 | 0.0 | 0.00 | 0.00 | 0.00 | 71 | 1013.1 |
| 20260905134543 | 28 | 281 | 0.0 | 0.0 | 0.00 | 0.00 | 0.00 | 74 | 1012.9 |
| 20260905133042 | 27 | 257 | 0.0 | 0.0 | 0.00 | 0.00 | 0.00 | 76 | 1012.9 |
| 20260905131556 | 27 | 262 | 0.0 | 0.0 | 0.00 | 0.00 | 0.00 | 77 | 1012.8 |
| 20260905130039 | 27 | 261 | 0.0 | 0.0 | 0.00 | 0.00 | 0.00 | 78 | 1012.7 |
| 20260905124547 | 26 | 261 | 0.0 | 0.0 | 0.00 | 0.00 | 0.00 | 79 | 1012.6 |
| 20260905123045 | 26 | 261 | 0.0 | 0.0 | 0.00 | 0.00 | 0.00 | 79 | 1012.4 |
| 20260905121537 | 26 | 261 | 0.0 | 0.0 | 0.00 | 0.00 | 0.00 | 79 | 1012.3 |
| 20260905120036 | 26 | 261 | 0.0 | 0.0 | 0.00 | 0.00 | 0.00 | 79 | 1012.2 |
| 20260905114541 | 26 | 261 | 0.0 | 0.0 | 0.00 | 0.00 | 0.00 | 79 | 1012.1 |
| 20260905113040 | 26 | 261 | 0.0 | 0.0 | 0.00 | 0.00 | 0.00 | 79 | 1012.0 |
| 20260905111545 | 26 | 261 | 0.0 | 0.0 | 0.00 | 0.00 | 0.00 | 79 | 1011.9 |
| 20260905110032 | 26 | 261 | 0.0 | 0.0 | 0.00 | 0.00 | 0.00 | 78 | 1011.8 |
| 20260905104531 | 26 | 261 | 0.0 | 0.0 | 0.00 | 0.00 | 0.00 | 77 | 1011.8 |
| 20260905103033 | 26 | 261 | 0.0 | 0.0 | 0.00 | 0.00 | 0.00 | 78 | 1011.9 |
| 20260905101538 | 26 | 261 | 0.0 | 0.0 | 0.00 | 0.00 | 0.00 | 78 | 1012.0 |
| 20260905100028 | 26 | 261 | 0.0 | 0.0 | 0.00 | 0.00 | 0.00 | 77 | 1011.9 |
| 20260905094527 | 26 | 261 | 0.0 | 0.0 | 0.00 | 0.00 | 0.00 | 77 | 1011.9 |
| 20260905093026 | 27 | 261 | 0.0 | 0.0 | 0.00 | 0.00 | 0.00 | 76 | 1011.9 |
| 20260905091524 | 27 | 261 | 0.0 | 0.0 | 0.00 | 0.00 | 0.00 | 76 | 1011.9 |
| 20260905090123 | 27 | 261 | 0.0 | 0.0 | 0.00 | 0.00 | 0.00 | 77 | 1012.0 |
| 20260905084550 | 27 | 261 | 0.0 | 0.0 | 0.00 | 0.00 | 0.00 | 77 | 1011.9 |
| 20260905083022 | 27 | 261 | 0.0 | 0.0 | 0.00 | 0.00 | 0.00 | 76 | 1012.0 |
| 20260905081517 | 27 | 261 | 0.0 | 0.0 | 0.00 | 0.00 | 0.00 | 76 | 1012.2 |
| 20260905080016 | 27 | 261 | 0.0 | 0.0 | 0.00 | 0.00 | 0.00 | 75 | 1012.3 |
| 20260905074515 | 27 | 261 | 0.0 | 0.0 | 0.00 | 0.00 | 0.00 | 75 | 1012.3 |
| 20260905073017 | 27 | 261 | 0.0 | 0.0 | 0.00 | 0.00 | 0.00 | 74 | 1012.2 |
| 20260905071514 | 27 | 261 | 0.0 | 0.0 | 0.00 | 0.00 | 0.00 | 75 | 1012.3 |
| 20260905070012 | 27 | 261 | 0.0 | 0.0 | 0.00 | 0.00 | 0.00 | 74 | 1012.4 |